[[{"header":{"parameterUnit":"m.s-1","parameterCategory":1,"la1":30.2992,"la2":30.254,"lo1":-89.0895,"lo2":-89.0443,"dy":0.0025,"dx":0.0025,"nx":19,"ny":19,"refTime":"2026-05-11T09:00:00:Z","depth":0,"parameterNumber":2,"parameterNumberName":"U-component_of_WINDS"},"data":[0,0,0,-4.9856,-4.9862,-5.0103,-5.0104,-5.0432,-5.0435,0,0,0,0,0,0,0,0,0,0,0,-4.9796,-4.9798,-4.9856,-4.9862,-5.0103,-5.0104,-5.0431,-5.0435,0,0,0,0,0,0,0,0,0,0,0,-4.9795,-4.9798,-4.9801,-4.9863,-5.0103,-5.0104,-5.043,-5.0242,0,0,0,0,0,0,0,0,0,0,-5.0004,-4.9959,-4.9797,-4.9801,-4.9865,-5.0103,-5.0104,-5.0232,-5.0253,-5.033,0,-5.0401,0,-5.0423,-5.0458,-5.0459,0,0,0,-4.9854,-4.9942,-4.9996,-4.9802,-4.9867,-5.0102,-4.9992,-5.0244,-5.0268,-5.0358,-5.0406,-5.0417,-5.0429,-5.046,-5.0462,-5.093,-5.0933,0,0,-4.9841,-4.9845,-4.998,-5.0013,-4.9976,-4.9984,-5.0,-5.0258,-5.031,-5.0407,-5.0425,-5.0434,-5.0462,-5.0465,-5.0928,-5.0931,0,0,0,-4.9808,-4.9837,-4.9885,-5.0,-5.0042,-4.9992,-5.0009,-5.0298,-5.0314,-5.0428,-5.0438,-5.0464,-5.0469,-5.0925,-5.0929,-5.1058,0,0,0,-4.9799,-4.9817,-4.9879,-4.9885,-5.0037,-5.0173,-5.0044,-5.0296,-5.0325,-5.0436,-5.0464,-5.0472,-5.0922,-5.0927,-5.1048,-5.1117,0,0,0,-4.9776,-4.9814,-4.9853,-4.9884,-4.9988,-5.0169,-5.0199,-5.0302,-5.0332,-5.0459,-5.0473,-5.092,-5.0926,-5.104,-5.1103,-5.1239,0,0,0,-4.9753,-4.9966,-4.9855,-5.0097,-4.9986,-5.0248,-5.0197,-5.0392,-5.0517,-5.0466,-5.0923,-5.0929,-5.1037,-5.1094,-5.123,-5.1352,-5.1404,0,0,-5.0024,-4.9999,-5.0141,-5.0049,-5.033,-5.021,-5.0512,-5.0623,-5.0632,-5.083,-5.0842,-5.1051,-5.1102,-5.1237,-5.1701,-5.1743,0,0,0,-5.0228,-5.033,-5.0403,-5.0522,-5.0612,-5.0694,-5.0758,-5.0799,-5.0968,-5.0735,-5.1139,-5.1169,-5.1248,-5.1306,-5.1342,-5.1408,-5.0957,-5.0956,-5.0955,-5.0616,-5.0615,-5.0849,-5.0878,-5.0994,-5.1058,-5.1152,-5.1218,-5.1185,-5.1281,-5.1338,-5.162,-5.1688,-5.1714,-5.1784,-5.1406,-5.1407,-5.1407,-5.1407,-5.101,-5.1152,-5.1103,-5.1311,-5.1309,-5.1485,-5.1556,-5.1526,-5.1689,-5.1577,-5.1646,-5.152,-5.176,-5.182,-5.1417,-5.1415,-5.1414,-5.1413,-5.1413,-5.126,-5.1328,-5.1375,-5.1546,-5.1678,-5.1701,-5.1859,-5.1853,-5.1849,-5.1918,-5.1977,-5.1975,-5.1969,-5.1948,-5.1949,-5.195,-5.195,-5.1951,-5.1952,-5.15,-5.1549,-5.1682,-5.1795,-5.187,-5.1968,-5.2036,-5.211,-5.2191,-5.2174,-5.2174,-5.2129,-5.1785,-5.1696,-5.1967,-5.1964,-5.1962,-5.1961,-5.196,-5.1892,-5.1803,-5.2008,-5.2084,-5.2216,-5.2347,-5.2339,-5.249,-5.255,-5.2628,-5.2571,-5.2318,-5.2291,-5.2263,-5.2189,-5.2571,-5.2571,-5.2571,-5.2572,-5.21,-5.2087,-5.2295,-5.2416,-5.2533,-5.2547,-5.2779,-5.2835,-5.2878,-5.2916,-5.2861,-5.2764,-5.2736,-5.2726,-5.2688,-5.2618,-5.3101,-5.3102,-5.3102,-5.234,-5.2338,-5.2535,-5.2576,-5.2679,-5.2768,-5.2986,-5.3126,-5.3158,-5.3123,-5.2944,-5.2922,-5.2765,-5.2715,-5.2672,-5.2613,-5.2486,0,0]},{"header":{"parameterUnit":"m.s-1","parameterCategory":1,"la1":30.2992,"la2":30.254,"lo1":-89.0895,"lo2":-89.0443,"dy":0.0025,"dx":0.0025,"nx":19,"ny":19,"refTime":"2026-05-11T09:00:00:Z","depth":0,"parameterNumber":3,"parameterNumberName":"V-component_of_WINDS"},"data":[0,0,0,0.8992,0.8994,0.9089,0.9089,0.9201,0.9202,0,0,0,0,0,0,0,0,0,0,0,0.8958,0.8959,0.8992,0.8994,0.9089,0.9089,0.9201,0.9202,0,0,0,0,0,0,0,0,0,0,0,0.8958,0.8959,0.8959,0.8994,0.9089,0.9089,0.9201,0.9132,0,0,0,0,0,0,0,0,0,0,0.9041,0.9006,0.8959,0.8959,0.8995,0.9089,0.9089,0.9129,0.9137,0.9154,0,0.9169,0,0.9188,0.9209,0.921,0,0,0,0.8997,0.8999,0.903,0.896,0.8995,0.9089,0.9047,0.9133,0.9142,0.9164,0.9171,0.9175,0.919,0.921,0.921,0.9303,0.9304,0,0,0.8992,0.8972,0.9024,0.9035,0.9021,0.9044,0.905,0.9139,0.9144,0.9171,0.9178,0.9191,0.9211,0.9211,0.9303,0.9303,0,0,0,0.8975,0.8968,0.8997,0.903,0.9048,0.9047,0.9053,0.914,0.9152,0.9179,0.9193,0.9211,0.9212,0.9303,0.9303,0.9297,0,0,0,0.8972,0.8958,0.8995,0.8983,0.9047,0.9096,0.9053,0.9145,0.9156,0.9192,0.9211,0.9213,0.9303,0.9303,0.9297,0.9297,0,0,0,0.8954,0.8956,0.8968,0.8982,0.9022,0.9095,0.9111,0.9148,0.9164,0.921,0.9214,0.9302,0.9303,0.9297,0.9297,0.9316,0,0,0,0.8929,0.896,0.8968,0.9009,0.9021,0.9091,0.9111,0.9163,0.9202,0.9212,0.9303,0.9303,0.9296,0.9296,0.9315,0.9328,0.9332,0,0,0.8958,0.8963,0.8989,0.8999,0.9062,0.9078,0.9141,0.9194,0.9216,0.9273,0.9275,0.9297,0.9297,0.9316,0.9361,0.9364,0,0,0,0.8992,0.901,0.9031,0.9068,0.911,0.9147,0.9194,0.9214,0.9264,0.9241,0.931,0.9311,0.9323,0.933,0.9332,0.9344,0.9306,0.9306,0.9306,0.9002,0.9031,0.9076,0.9116,0.9151,0.92,0.9231,0.9267,0.9283,0.9299,0.9316,0.934,0.9347,0.9349,0.9361,0.9326,0.9326,0.9325,0.9325,0.9047,0.9077,0.9102,0.9153,0.9183,0.9227,0.9276,0.9287,0.9331,0.9329,0.9341,0.9335,0.9351,0.9363,0.9325,0.9325,0.9325,0.9325,0.9325,0.9056,0.9076,0.9101,0.9159,0.92,0.9239,0.9282,0.9307,0.9331,0.9344,0.9364,0.9364,0.9367,0.9352,0.9352,0.9352,0.9352,0.9352,0.9352,0.9055,0.9085,0.9118,0.9168,0.9196,0.9236,0.9287,0.9315,0.9352,0.9367,0.9367,0.9382,0.9348,0.9338,0.9354,0.9353,0.9353,0.9353,0.9353,0.9088,0.9085,0.9136,0.9165,0.9226,0.9266,0.9299,0.9354,0.9381,0.9401,0.9415,0.9386,0.9393,0.9391,0.9383,0.9409,0.9409,0.9409,0.9409,0.9095,0.9102,0.9161,0.9204,0.925,0.9286,0.9343,0.9384,0.9425,0.9444,0.9444,0.9437,0.9434,0.9442,0.944,0.9432,0.9471,0.9471,0.9471,0.9116,0.913,0.9173,0.9215,0.9266,0.9309,0.9364,0.9412,0.9459,0.9474,0.9459,0.9456,0.9444,0.9439,0.9451,0.9446,0.9433,0,0]}]]